User: anonymous   Login
Location: NJAA Observatory
(40.6819°N, 74.8979°W)
Time: 21:22:09
(UTC-05:00)
Language:

Landsat 5 - Orbit

View from above orbital plane
View from above orbital plane
View from above satellite
View from above satellite

Ground track
Ground track

The orbit data is extracted from the following two-line orbital elements,

1 14780U 84021A   14351.47125088  .00003460  00000-0  34148-3 0  5132
2 14780 098.0431 071.8529 0093201 292.1671 176.7625 14.89464882639895
Epoch (UTC): 17 December 2014 11:18:36
Eccentricity: 0.0093201
inclination: 98.0431°
perigee height: 534 km
apogee height: 664 km
right ascension of ascending node: 71.8529°
argument of perigee: 292.1671°
revolutions per day: 14.89464882
mean anomaly at epoch: 176.7625°
orbit number at epoch: 63989

The dashed part of the orbit path shows where the satellite is in the earth's shadow,  

DLR